Location: Bishop�s Knoyle
(51.0728°N, 2.1714°W)
Time: 12:19:02
(UTC+00:00)

NOSS 2-2 (C) - Pass Details

Date: 18 September 2020
Orbit: 468 x 1740 km, 63.3° (Epoch: 19 October)

Event Time Altitude Azimuth Distance (km) Brightness Sun altitude
Rises 20:04:25 0° 221° (SW) 2,499 6.9 -17.4°
Reaches altitude 10° 20:06:25 10° 221° (SW) 1,634 5.9 -17.7°
Maximum altitude 20:09:56 85° 133° (SE) 511 3.0 -18.2°
Drops below altitude 10° 20:14:02 10° 45° (NE) 1,893 5.9 -18.7°
Enters shadow 20:15:46 - 45° (NE) 2,632 6.6 -19.0°
